Location: Unspecified
(0.0000°N, 0.0000°E)
Time: 11:26:21
(UTC+00:00)

PAYLOAD A - Visible Passes

Search period start: 24 September 2021 00:00
Search period end: 04 October 2021 00:00
Orbit: 617 x 36047 km, 7.5° (Epoch: 23 September)

Date Brightness Start Highest point End Pass type
(mag) Time Alt. Az. Time Alt. Az. Time Alt. Az.
24 Sep 10.5 00:02:28 10° W 01:22:59 23° W 04:03:48 10° W visible
24 Sep 8.8 20:52:36 10° W 22:40:25 65° WNW 06:58:21 10° ESE visible
25 Sep 8.9 18:07:44 10° W 18:33:26 83° N 04:18:49 10° E visible
26 Sep 8.1 15:28:25 10° WSW 23:47:45 62° ENE 01:33:12 10° E visible
27 Sep 10.2 20:11:01 17° E 21:05:03 20° E 22:16:58 10° E visible
28 Sep 10.7 01:46:02 10° W 02:03:06 10° W 02:22:05 10° W visible
28 Sep 8.0 21:38:43 10° W 23:24:09 51° WNW 07:39:09 10° ESE visible
29 Sep 9.1 18:49:51 10° W 19:37:28 81° N 05:00:28 10° E visible
30 Sep 8.8 16:09:22 10° W 00:34:29 76° ENE 02:17:43 10° E visible
01 Oct 9.9 17:49:36 10° E 21:46:09 33° E 23:19:08 10° E visible
02 Oct 7.3 22:28:18 10° W 00:06:32 37° W 08:19:52 10° ESE visible
